Tracking 31027 objects as of 19-Jul-2025
HD Live streaming from Space Station
objects crossing your sky now

COSMOS 1823 DEB

Track COSMOS 1823 DEB now!
10-day predictions


NORAD ID: 39833
Int'l Code: 1987-020FH
Perigee: 1,418.6 km
Apogee: 1,451.9 km
Inclination: 73.8 °
Period: 114.4 minutes
Semi major axis: 7806 km
RCS: 0.0132 m2 (small)
Launch date: February 20, 1987
Source: Commonwealth of Independent States (former USSR) (CIS)
Launch site: PLESETSK MISSILE AND SPACE COMPLEX (PKMTR)

Note: This is SATELLITE DEBRIS
Your satellite tracking list
KL-BETA B
Track 1 satellite(s)




NASA's NSSDC Master Catalog

Two Line Element Set (TLE):
1 39833U 87020FH  25198.67711822  .00000207  00000-0  13159-2 0  9992
2 39833  73.7767 199.4010 0021360  81.9712 278.3765 12.58744766510610
Source of the keplerian elements: AFSPC